Terug naar catalogus

SL-6 R/B(2)

ActiefHEO
NORAD 7373·ROCKET BODY·🇷🇺 Russia

Gelanceerd Apr 26, 1974 vanaf Plesetsk Cosmodrome

Loading…

Volgende Passages (komende 24 uur)

TLE

VersSource: Space-Track

Epoch: Sep 14, 2026, 00:19 UTC

1 07373U 74026E   26257.01348186 -.00000517  00000-0  00000-0 0  9996
2 07373  64.0447 282.3339 7048674 268.2988  17.1292  2.06589991388770

Volg SL-6 R/B(2) in realtime met AllMySat

Download on the App Store